Date,TemperatureHighF,TemperatureAvgF,TemperatureLowF,DewpointHighF,DewpointAvgF,DewpointLowF,HumidityHigh,HumidityAvg,HumidityLow,PressureMaxIn,PressureMinIn,WindSpeedMaxMPH,WindSpeedAvgMPH,GustSpeedMaxMPH,PrecipitationSumIn
2013-2-1,69,62,53,-100,-100,-100,0,0,100,30.28,30.17,26,17,32,0.00
2013-2-2,70,65,57,-100,-100,-100,0,0,100,30.27,30.13,15,8,19,0.00
2013-2-3,70,65,58,-100,-100,-100,0,0,100,30.18,30.09,20,-18,24,0.00
2013-2-4,70,64,52,-100,-100,-100,0,0,100,30.15,30.04,13,-63,15,0.00
2013-2-5,73,68,60,-100,-100,-100,0,0,100,30.10,30.02,14,-55,16,0.00
2013-2-6,76,71,65,-100,-100,-100,0,0,100,30.12,30.03,18,-27,20,0.00
2013-2-7,75,71,72,-100,-100,-100,0,0,100,30.09,29.96,106,17,130,0.00
2013-2-8,81,74,70,-100,-100,-100,0,0,100,30.03,29.92,20,9,22,0.00
2013-2-9,74,72,67,-100,-100,-100,0,0,100,30.16,30.00,21,13,24,0.00
2013-2-10,73,72,69,-100,-100,-100,0,0,100,30.25,30.14,24,18,27,0.00
2013-2-11,74,73,72,-100,-100,-100,0,0,100,30.21,30.10,21,17,25,0.00
2013-2-12,76,74,70,-100,-100,-100,0,0,100,30.11,29.96,24,16,28,0.00
2013-2-13,78,75,72,-100,-100,-100,0,0,100,30.00,29.88,28,16,32,0.00
2013-2-14,74,70,64,-100,-100,-100,0,0,100,29.99,29.85,27,11,33,0.00
2013-2-15,71,68,65,-100,-100,-100,0,0,100,30.01,29.92,27,10,31,0.00
2013-2-16,70,65,56,-100,-100,-100,0,0,100,30.06,29.86,22,12,30,0.00
2013-2-17,55,51,45,-100,-100,-100,0,0,100,30.28,30.06,25,17,34,0.00
2013-2-18,68,59,48,-100,-100,-100,0,0,100,30.31,30.19,23,16,27,0.00
2013-2-19,73,71,67,-100,-100,-100,0,0,100,30.19,30.08,22,16,28,0.00
2013-2-20,74,70,65,-100,-100,-100,0,0,100,30.10,30.00,15,8,17,0.00
2013-2-21,75,74,73,-100,-100,-100,0,0,100,30.08,29.98,16,11,19,0.00
2013-2-22,76,75,74,-100,-100,-100,0,0,100,30.09,30.00,24,18,27,0.00
2013-2-23,76,75,71,-100,-100,-100,0,0,100,30.04,29.90,25,19,28,0.00
2013-2-24,80,75,72,-100,-100,-100,0,0,100,29.98,29.89,17,10,19,0.00
2013-2-25,77,75,73,-100,-100,-100,0,0,100,29.90,29.80,21,12,24,0.00
2013-2-26,81,77,76,-100,-100,-100,0,0,100,29.87,29.78,28,18,32,0.00
2013-2-27,77,70,63,-100,-100,-100,0,0,100,29.95,29.84,14,7,19,0.00
2013-2-28,69,64,59,-100,-100,-100,0,0,100,29.98,29.89,14,8,21,0.00